Year,Month,Day,Hour,Minute,Value (Times are PST for temperature in C)
2020,03,11,00,00,7.60
2020,03,11,00,01,7.60
2020,03,11,00,02,7.60
2020,03,11,00,03,7.60
2020,03,11,00,04,7.60
2020,03,11,00,05,7.60
2020,03,11,00,06,7.50
2020,03,11,00,07,7.50
2020,03,11,00,08,7.50
2020,03,11,00,09,7.50
2020,03,11,00,10,7.50
2020,03,11,00,11,7.50
2020,03,11,00,12,7.50
2020,03,11,00,13,7.50
2020,03,11,00,14,7.50
2020,03,11,00,15,7.50
2020,03,11,00,16,7.50
2020,03,11,00,17,7.50
2020,03,11,00,18,7.50
2020,03,11,00,19,7.50
2020,03,11,00,20,7.50
2020,03,11,00,22,7.50
2020,03,11,00,23,7.50
2020,03,11,00,24,7.50
2020,03,11,00,26,7.60
2020,03,11,00,27,7.60
2020,03,11,00,28,7.60
2020,03,11,00,29,7.60
2020,03,11,00,30,7.70
2020,03,11,00,32,7.70
2020,03,11,00,33,7.70
2020,03,11,00,34,7.70
2020,03,11,00,36,7.70
2020,03,11,00,37,7.70
2020,03,11,00,38,7.70
2020,03,11,00,39,7.70
2020,03,11,00,41,7.70
2020,03,11,00,42,7.70
2020,03,11,00,43,7.70
2020,03,11,00,44,7.80
2020,03,11,00,46,7.80
2020,03,11,00,47,7.80
2020,03,11,00,48,7.80
2020,03,11,00,49,7.80
2020,03,11,00,51,7.90
2020,03,11,00,52,7.90
2020,03,11,00,53,7.90
2020,03,11,00,54,8.00
2020,03,11,00,56,8.00
2020,03,11,00,57,8.10
2020,03,11,00,58,8.10
2020,03,11,00,59,8.10
2020,03,11,01,01,8.10
2020,03,11,01,02,8.20
2020,03,11,01,03,8.20
2020,03,11,01,04,8.20
2020,03,11,01,06,8.20
2020,03,11,01,07,8.20
2020,03,11,01,08,8.20
2020,03,11,01,09,8.20
2020,03,11,01,11,8.20
2020,03,11,01,12,8.20
2020,03,11,01,13,8.20
2020,03,11,01,14,8.20
2020,03,11,01,16,8.20
2020,03,11,01,17,8.20
2020,03,11,01,18,8.20
2020,03,11,01,19,8.20
2020,03,11,01,21,8.20
2020,03,11,01,22,8.20
2020,03,11,01,23,8.20
2020,03,11,01,24,8.20
2020,03,11,01,26,8.20
2020,03,11,01,27,8.20
2020,03,11,01,28,8.20
2020,03,11,01,29,8.20
2020,03,11,01,31,8.10
2020,03,11,01,32,8.10
2020,03,11,01,33,8.10
2020,03,11,01,34,8.10
2020,03,11,01,36,8.10
2020,03,11,01,37,8.00
2020,03,11,01,38,8.00
2020,03,11,01,39,8.00
2020,03,11,01,41,7.90
2020,03,11,01,42,7.90
2020,03,11,01,43,7.90
2020,03,11,01,44,7.90
2020,03,11,01,46,7.90
2020,03,11,01,47,7.90
2020,03,11,01,48,7.80
2020,03,11,01,49,7.80
2020,03,11,01,50,7.80
2020,03,11,01,51,7.80
2020,03,11,01,52,7.80
2020,03,11,01,53,7.80
2020,03,11,01,54,7.80
2020,03,11,01,55,7.80
2020,03,11,01,56,7.80
2020,03,11,01,57,7.80
2020,03,11,01,58,7.80
2020,03,11,01,59,7.80
2020,03,11,02,00,7.80
2020,03,11,02,01,7.80
2020,03,11,02,02,7.80
2020,03,11,02,03,7.80
2020,03,11,02,04,7.80
2020,03,11,02,05,7.80
2020,03,11,02,06,7.80
2020,03,11,02,07,7.80
2020,03,11,02,08,7.80
2020,03,11,02,09,7.80
2020,03,11,02,10,7.80
2020,03,11,02,11,7.80
2020,03,11,02,12,7.80
2020,03,11,02,13,7.80
2020,03,11,02,14,7.70
2020,03,11,02,15,7.70
2020,03,11,02,16,7.70
2020,03,11,02,17,7.70
2020,03,11,02,18,7.70
2020,03,11,02,19,7.70
2020,03,11,02,20,7.70
2020,03,11,02,21,7.70
2020,03,11,02,22,7.70
2020,03,11,02,23,7.70
2020,03,11,02,24,7.70
2020,03,11,02,25,7.70
2020,03,11,02,26,7.70
2020,03,11,02,27,7.70
2020,03,11,02,28,7.70
2020,03,11,02,29,7.70
2020,03,11,02,30,7.70
2020,03,11,02,31,7.60
2020,03,11,02,32,7.60
2020,03,11,02,33,7.60
2020,03,11,02,34,7.60
2020,03,11,02,36,7.60
2020,03,11,02,37,7.60
2020,03,11,02,38,7.60
2020,03,11,02,39,7.50
2020,03,11,02,40,7.50
2020,03,11,02,41,7.50
2020,03,11,02,42,7.50
2020,03,11,02,43,7.40
2020,03,11,02,44,7.40
2020,03,11,02,45,7.40
2020,03,11,02,46,7.40
2020,03,11,02,47,7.40
2020,03,11,02,48,7.30
2020,03,11,02,49,7.30
2020,03,11,02,50,7.30
2020,03,11,02,51,7.30
2020,03,11,02,52,7.30
2020,03,11,02,53,7.30
2020,03,11,02,54,7.30
2020,03,11,02,55,7.20
2020,03,11,02,56,7.20
2020,03,11,02,57,7.20
2020,03,11,02,58,7.20
2020,03,11,02,59,7.20
2020,03,11,03,00,7.10
2020,03,11,03,01,7.10
2020,03,11,03,02,7.10
2020,03,11,03,03,7.10
2020,03,11,03,04,7.10
2020,03,11,03,05,7.00
2020,03,11,03,06,7.00
2020,03,11,03,07,7.00
2020,03,11,03,08,7.00
2020,03,11,03,09,6.90
2020,03,11,03,10,6.90
2020,03,11,03,11,6.90
2020,03,11,03,12,6.90
2020,03,11,03,13,6.90
2020,03,11,03,14,6.80
2020,03,11,03,15,6.80
2020,03,11,03,16,6.80
2020,03,11,03,17,6.80
2020,03,11,03,18,6.80
2020,03,11,03,19,6.80
2020,03,11,03,20,6.80
2020,03,11,03,21,6.90
2020,03,11,03,22,6.90
2020,03,11,03,23,6.90
2020,03,11,03,24,6.90
2020,03,11,03,25,7.00
2020,03,11,03,26,7.00
2020,03,11,03,27,7.00
2020,03,11,03,28,7.10
2020,03,11,03,29,7.10
2020,03,11,03,30,7.10
2020,03,11,03,31,7.20
2020,03,11,03,32,7.20
2020,03,11,03,33,7.20
2020,03,11,03,34,7.20
2020,03,11,03,35,7.20
2020,03,11,03,36,7.20
2020,03,11,03,37,7.20
2020,03,11,03,38,7.20
2020,03,11,03,39,7.30
2020,03,11,03,40,7.30
2020,03,11,03,41,7.30
2020,03,11,03,42,7.30
2020,03,11,03,43,7.30
2020,03,11,03,44,7.20
2020,03,11,03,45,7.20
2020,03,11,03,46,7.20
2020,03,11,03,47,7.20
2020,03,11,03,48,7.30
2020,03,11,03,49,7.30
2020,03,11,03,50,7.30
2020,03,11,03,51,7.30
2020,03,11,03,53,7.30
2020,03,11,03,54,7.20
2020,03,11,03,56,7.20
2020,03,11,03,57,7.20
2020,03,11,03,58,7.20
2020,03,11,03,59,7.20
2020,03,11,04,01,7.20
2020,03,11,04,02,7.20
2020,03,11,04,03,7.20
2020,03,11,04,04,7.20
2020,03,11,04,06,7.10
2020,03,11,04,07,7.10
2020,03,11,04,08,7.10
2020,03,11,04,09,7.10
2020,03,11,04,11,7.10
2020,03,11,04,12,7.00
2020,03,11,04,13,7.00
2020,03,11,04,14,7.00
2020,03,11,04,16,7.00
2020,03,11,04,17,7.00
2020,03,11,04,18,7.00
2020,03,11,04,19,7.00
2020,03,11,04,21,6.90
2020,03,11,04,22,6.90
2020,03,11,04,23,6.80
2020,03,11,04,24,6.80
2020,03,11,04,26,6.80
2020,03,11,04,27,6.80
2020,03,11,04,28,6.80
2020,03,11,04,29,6.80
2020,03,11,04,31,6.70
2020,03,11,04,32,6.70
2020,03,11,04,33,6.70
2020,03,11,04,34,6.70
2020,03,11,04,35,6.70
2020,03,11,04,36,6.70
2020,03,11,04,37,6.70
2020,03,11,04,38,6.70
2020,03,11,04,39,6.60
2020,03,11,04,40,6.60
2020,03,11,04,41,6.60
2020,03,11,04,42,6.60
2020,03,11,04,43,6.60
2020,03,11,04,44,6.60
2020,03,11,04,45,6.60
2020,03,11,04,46,6.60
2020,03,11,04,47,6.60
2020,03,11,04,48,6.60
2020,03,11,04,49,6.60
2020,03,11,04,50,6.60
2020,03,11,04,51,6.60
2020,03,11,04,52,6.40
2020,03,11,04,53,6.40
2020,03,11,04,54,6.40
2020,03,11,04,55,6.40
2020,03,11,04,56,6.40
2020,03,11,04,57,6.40
2020,03,11,04,58,6.40
2020,03,11,04,59,6.40
2020,03,11,05,00,6.30
2020,03,11,05,01,6.30
2020,03,11,05,02,6.30
2020,03,11,05,03,6.30
2020,03,11,05,04,6.20
2020,03,11,05,05,6.20
2020,03,11,05,06,6.20
2020,03,11,05,07,6.20
2020,03,11,05,08,6.20
2020,03,11,05,09,6.20
2020,03,11,05,10,6.20
2020,03,11,05,11,6.20
2020,03,11,05,12,6.20
2020,03,11,05,13,6.20
2020,03,11,05,14,6.20
2020,03,11,05,15,6.20
2020,03,11,05,16,6.20
2020,03,11,05,17,6.20
2020,03,11,05,18,6.20
2020,03,11,05,19,6.20
2020,03,11,05,20,6.20
2020,03,11,05,21,6.20
2020,03,11,05,22,6.20
2020,03,11,05,23,6.20
2020,03,11,05,24,6.20
2020,03,11,05,25,6.20
2020,03,11,05,26,6.20
2020,03,11,05,27,6.20
2020,03,11,05,28,6.20
2020,03,11,05,29,6.20
2020,03,11,05,30,6.20
2020,03,11,05,31,6.20
2020,03,11,05,32,6.20
2020,03,11,05,33,6.20
2020,03,11,05,34,6.20
2020,03,11,05,35,6.20
2020,03,11,05,36,6.20
2020,03,11,05,37,6.20
2020,03,11,05,38,6.20
2020,03,11,05,39,6.20
2020,03,11,05,40,6.20
2020,03,11,05,41,6.20
2020,03,11,05,42,6.10
2020,03,11,05,43,6.10
2020,03,11,05,44,6.10
2020,03,11,05,45,6.10
2020,03,11,05,46,6.10
2020,03,11,05,47,6.10
2020,03,11,05,48,6.00
2020,03,11,05,49,6.00
2020,03,11,05,50,6.00
2020,03,11,05,51,6.00
2020,03,11,05,52,6.00
2020,03,11,05,53,6.00
2020,03,11,05,54,6.00
2020,03,11,05,55,6.00
2020,03,11,05,56,5.90
2020,03,11,05,57,5.90
2020,03,11,05,58,5.90
2020,03,11,05,59,5.90
2020,03,11,06,00,5.90
2020,03,11,06,01,5.80
2020,03,11,06,02,5.80
2020,03,11,06,03,5.80
2020,03,11,06,04,5.80
2020,03,11,06,05,5.80
2020,03,11,06,06,5.70
2020,03,11,06,07,5.70
2020,03,11,06,08,5.70
2020,03,11,06,09,5.70
2020,03,11,06,10,5.70
2020,03,11,06,11,5.70
2020,03,11,06,12,5.60
2020,03,11,06,13,5.60
2020,03,11,06,14,5.60
2020,03,11,06,15,5.50
2020,03,11,06,16,5.50
2020,03,11,06,17,5.50
2020,03,11,06,18,5.40
2020,03,11,06,19,5.40
2020,03,11,06,20,5.30
2020,03,11,06,21,5.30
2020,03,11,06,22,5.30
2020,03,11,06,23,5.30
2020,03,11,06,24,5.30
2020,03,11,06,25,5.30
2020,03,11,06,26,5.20
2020,03,11,06,27,5.20
2020,03,11,06,28,5.20
2020,03,11,06,29,5.10
2020,03,11,06,30,5.10
2020,03,11,06,32,5.10
2020,03,11,06,33,5.10
2020,03,11,06,34,4.90
2020,03,11,06,35,4.90
2020,03,11,06,36,4.90
2020,03,11,06,37,4.90
2020,03,11,06,38,4.80
2020,03,11,06,39,4.80
2020,03,11,06,40,4.70
2020,03,11,06,41,4.70
2020,03,11,06,42,4.60
2020,03,11,06,43,4.60
2020,03,11,06,44,4.60
2020,03,11,06,45,4.60
2020,03,11,06,46,4.60
2020,03,11,06,47,4.60
2020,03,11,06,48,4.60
2020,03,11,06,49,4.60
2020,03,11,06,50,4.60
2020,03,11,06,51,4.60
2020,03,11,06,53,4.60
2020,03,11,06,54,4.60
2020,03,11,06,56,4.60
2020,03,11,06,57,4.60
2020,03,11,06,58,4.60
2020,03,11,06,59,4.60
2020,03,11,07,01,4.60
2020,03,11,07,02,4.60
2020,03,11,07,03,4.60
2020,03,11,07,04,4.60
2020,03,11,07,06,4.60
2020,03,11,07,07,4.60
2020,03,11,07,08,4.60
2020,03,11,07,09,4.60
2020,03,11,07,11,4.60
2020,03,11,07,12,4.60
2020,03,11,07,13,4.60
2020,03,11,07,14,4.60
2020,03,11,07,16,4.60
2020,03,11,07,17,4.60
2020,03,11,07,18,4.60
2020,03,11,07,19,4.60
2020,03,11,07,21,4.60
2020,03,11,07,22,4.60
2020,03,11,07,23,4.60
2020,03,11,07,24,4.60
2020,03,11,07,26,4.60
2020,03,11,07,27,4.60
2020,03,11,07,28,4.50
2020,03,11,07,29,4.50
2020,03,11,07,31,4.50
2020,03,11,07,32,4.40
2020,03,11,07,33,4.40
2020,03,11,07,34,4.40
2020,03,11,07,36,4.30
2020,03,11,07,37,4.30
2020,03,11,07,38,4.30
2020,03,11,07,39,4.20
2020,03,11,07,41,4.20
2020,03,11,07,42,4.20
2020,03,11,07,43,4.20
2020,03,11,07,44,4.20
2020,03,11,07,46,4.10
2020,03,11,07,47,4.10
2020,03,11,07,48,4.10
2020,03,11,07,49,4.10
2020,03,11,07,51,4.00
2020,03,11,07,52,4.00
2020,03,11,07,53,4.00
2020,03,11,07,54,4.10
2020,03,11,07,56,4.10
2020,03,11,07,57,4.10
2020,03,11,07,58,4.10
2020,03,11,07,59,4.20
2020,03,11,08,01,4.20
2020,03,11,08,02,4.20
2020,03,11,08,03,4.20
2020,03,11,08,04,4.30
2020,03,11,08,06,4.40
2020,03,11,08,07,4.50
2020,03,11,08,08,4.60
2020,03,11,08,09,4.60
2020,03,11,08,10,4.60
2020,03,11,08,11,4.70
2020,03,11,08,12,4.80
2020,03,11,08,13,4.80
2020,03,11,08,14,4.90
2020,03,11,08,15,4.90
2020,03,11,08,16,4.90
2020,03,11,08,17,4.90
2020,03,11,08,18,5.10
2020,03,11,08,19,5.10
2020,03,11,08,20,5.10
2020,03,11,08,21,5.10
2020,03,11,08,22,5.10
2020,03,11,08,23,5.20
2020,03,11,08,24,5.20
2020,03,11,08,25,5.30
2020,03,11,08,26,5.30
2020,03,11,08,27,5.30
2020,03,11,08,28,5.30
2020,03,11,08,29,5.30
2020,03,11,08,30,5.30
2020,03,11,08,31,5.30
2020,03,11,08,32,5.30
2020,03,11,08,33,5.40
2020,03,11,08,34,5.40
2020,03,11,08,36,5.40
2020,03,11,08,37,5.50
2020,03,11,08,38,5.50
2020,03,11,08,39,5.50
2020,03,11,08,41,5.60
2020,03,11,08,42,5.60
2020,03,11,08,43,5.60
2020,03,11,08,44,5.60
2020,03,11,08,46,5.70
2020,03,11,08,47,5.70
2020,03,11,08,48,5.70
2020,03,11,08,49,5.70
2020,03,11,08,50,5.70
2020,03,11,08,51,5.70
2020,03,11,08,52,5.80
2020,03,11,08,53,5.80
2020,03,11,08,54,5.80
2020,03,11,08,55,5.80
2020,03,11,08,56,5.90
2020,03,11,08,57,5.90
2020,03,11,08,58,5.90
2020,03,11,08,59,6.00
2020,03,11,09,00,6.00
2020,03,11,09,01,6.00
2020,03,11,09,02,6.10
2020,03,11,09,03,6.10
2020,03,11,09,04,6.10
2020,03,11,09,05,6.10
2020,03,11,09,06,6.20
2020,03,11,09,07,6.20
2020,03,11,09,08,6.20
2020,03,11,09,09,6.20
2020,03,11,09,10,6.20
2020,03,11,09,11,6.20
2020,03,11,09,12,6.30
2020,03,11,09,13,6.30
2020,03,11,09,14,6.30
2020,03,11,09,15,6.40
2020,03,11,09,16,6.40
2020,03,11,09,17,6.40
2020,03,11,09,18,6.40
2020,03,11,09,19,6.40
2020,03,11,09,20,6.60
2020,03,11,09,21,6.60
2020,03,11,09,22,6.60
2020,03,11,09,23,6.60
2020,03,11,09,24,6.60
2020,03,11,09,25,6.60
2020,03,11,09,26,6.70
2020,03,11,09,27,6.70
2020,03,11,09,28,6.70
2020,03,11,09,29,6.80
2020,03,11,09,30,6.80
2020,03,11,09,31,6.80
2020,03,11,09,32,6.80
2020,03,11,09,33,6.90
2020,03,11,09,34,6.90
2020,03,11,09,35,6.90
2020,03,11,09,36,7.00
2020,03,11,09,37,7.00
2020,03,11,09,38,7.10
2020,03,11,09,39,7.10
2020,03,11,09,40,7.20
2020,03,11,09,41,7.20
2020,03,11,09,42,7.30
2020,03,11,09,43,7.30
2020,03,11,09,44,7.30
2020,03,11,09,45,7.30
2020,03,11,09,46,7.30
2020,03,11,09,47,7.30
2020,03,11,09,48,7.40
2020,03,11,09,49,7.40
2020,03,11,09,50,7.40
2020,03,11,09,51,7.40
2020,03,11,09,52,7.40
2020,03,11,09,53,7.50
2020,03,11,09,54,7.50
2020,03,11,09,55,7.50
2020,03,11,09,56,7.60
2020,03,11,09,57,7.60
2020,03,11,09,58,7.60
2020,03,11,09,59,7.70
2020,03,11,10,00,7.70
2020,03,11,10,01,7.70
2020,03,11,10,02,7.80
2020,03,11,10,03,7.80
2020,03,11,10,04,7.80
2020,03,11,10,05,7.90
2020,03,11,10,07,8.00
2020,03,11,10,08,8.00
2020,03,11,10,09,8.10
2020,03,11,10,11,8.10
2020,03,11,10,12,8.20
2020,03,11,10,13,8.20
2020,03,11,10,14,8.20
2020,03,11,10,16,8.30
2020,03,11,10,17,8.30
2020,03,11,10,18,8.40
2020,03,11,10,19,8.40
2020,03,11,10,21,8.40
2020,03,11,10,22,8.40
2020,03,11,10,23,8.50
2020,03,11,10,24,8.50
2020,03,11,10,26,8.50
2020,03,11,10,27,8.50
2020,03,11,10,28,8.60
2020,03,11,10,29,8.60
2020,03,11,10,31,8.60
2020,03,11,10,32,8.60
2020,03,11,10,33,8.60
2020,03,11,10,34,8.60
2020,03,11,10,36,8.70
2020,03,11,10,37,8.70
2020,03,11,10,38,8.70
2020,03,11,10,39,8.80
2020,03,11,10,41,8.90
2020,03,11,10,42,8.90
2020,03,11,10,43,9.00
2020,03,11,10,44,9.00
2020,03,11,10,46,9.10
2020,03,11,10,47,9.10
2020,03,11,10,48,9.10
2020,03,11,10,49,9.20
2020,03,11,10,50,9.20
2020,03,11,10,51,9.20
2020,03,11,10,52,9.20
2020,03,11,10,53,9.30
2020,03,11,10,54,9.30
2020,03,11,10,55,9.30
2020,03,11,10,56,9.40
2020,03,11,10,57,9.40
2020,03,11,10,58,9.40
2020,03,11,10,59,9.50
2020,03,11,11,00,9.50
2020,03,11,11,01,9.50
2020,03,11,11,02,9.50
2020,03,11,11,03,9.50
2020,03,11,11,04,9.50
2020,03,11,11,05,9.50
2020,03,11,11,06,9.60
2020,03,11,11,07,9.60
2020,03,11,11,08,9.70
2020,03,11,11,09,9.70
2020,03,11,11,10,9.70
2020,03,11,11,11,9.70
2020,03,11,11,12,9.70
2020,03,11,11,13,9.80
2020,03,11,11,14,9.80
2020,03,11,11,15,9.90
2020,03,11,11,16,9.90
2020,03,11,11,17,9.90
2020,03,11,11,18,9.90
2020,03,11,11,19,9.90
2020,03,11,11,20,9.90
2020,03,11,11,21,9.90
2020,03,11,11,22,10.10
2020,03,11,11,23,10.10
2020,03,11,11,24,10.10
2020,03,11,11,25,10.10
2020,03,11,11,26,10.20
2020,03,11,11,27,10.20
2020,03,11,11,28,10.20
2020,03,11,11,29,10.20
2020,03,11,11,30,10.10
2020,03,11,11,31,10.10
2020,03,11,11,32,10.10
2020,03,11,11,33,10.10
2020,03,11,11,34,10.10
2020,03,11,11,35,10.10
2020,03,11,11,36,10.10
2020,03,11,11,37,10.10
2020,03,11,11,38,10.20
2020,03,11,11,39,10.20
2020,03,11,11,40,10.20
2020,03,11,11,41,10.20
2020,03,11,11,42,10.20
2020,03,11,11,43,10.20
2020,03,11,11,44,10.20
2020,03,11,11,45,10.20
2020,03,11,11,46,10.20
2020,03,11,11,47,10.20
2020,03,11,11,48,10.20
2020,03,11,11,49,10.20
2020,03,11,11,50,10.20
2020,03,11,11,51,10.20
2020,03,11,11,52,10.20
2020,03,11,11,53,10.20
2020,03,11,11,54,10.20
2020,03,11,11,55,10.10
2020,03,11,11,56,10.10
2020,03,11,11,57,10.10
2020,03,11,11,58,10.10
2020,03,11,11,59,10.20
2020,03,11,12,00,10.20
2020,03,11,12,01,10.20
2020,03,11,12,02,10.20
2020,03,11,12,03,10.20
2020,03,11,12,04,10.20
2020,03,11,12,05,10.20
2020,03,11,12,06,10.30
2020,03,11,12,07,10.30
2020,03,11,12,08,10.30
2020,03,11,12,09,10.30
2020,03,11,12,10,10.30
2020,03,11,12,11,10.30
2020,03,11,12,12,10.40
2020,03,11,12,13,10.40
2020,03,11,12,14,10.40
2020,03,11,12,15,10.40
2020,03,11,12,16,10.40
2020,03,11,12,17,10.40
2020,03,11,12,18,10.40
2020,03,11,12,19,10.40
2020,03,11,12,20,10.40
2020,03,11,12,21,10.40
2020,03,11,12,22,10.40
2020,03,11,12,23,10.40
2020,03,11,12,24,10.40
2020,03,11,12,25,10.40
2020,03,11,12,26,10.40
2020,03,11,12,27,10.40
2020,03,11,12,28,10.40
2020,03,11,12,29,10.40
2020,03,11,12,30,10.40
2020,03,11,12,32,10.40
2020,03,11,12,34,10.40
2020,03,11,12,36,10.40
2020,03,11,12,38,10.40
2020,03,11,12,39,10.40
2020,03,11,12,41,10.40
2020,03,11,12,42,10.40
2020,03,11,12,43,10.40
2020,03,11,12,44,10.40
2020,03,11,12,46,10.40
2020,03,11,12,47,10.40
2020,03,11,12,48,10.40
2020,03,11,12,49,10.40
2020,03,11,12,51,10.60
2020,03,11,12,52,10.60
2020,03,11,12,53,10.60
2020,03,11,12,54,10.60
2020,03,11,12,56,10.70
2020,03,11,12,57,10.80
2020,03,11,12,58,10.90
2020,03,11,12,59,10.90
2020,03,11,13,01,10.90
2020,03,11,13,02,11.10
2020,03,11,13,03,11.10
2020,03,11,13,04,11.10
2020,03,11,13,06,11.10
2020,03,11,13,07,11.10
2020,03,11,13,08,10.90
2020,03,11,13,09,10.90
2020,03,11,13,11,10.90
2020,03,11,13,12,10.80
2020,03,11,13,13,10.70
2020,03,11,13,14,10.60
2020,03,11,13,16,10.60
2020,03,11,13,17,10.60
2020,03,11,13,18,10.40
2020,03,11,13,19,10.40
2020,03,11,13,21,10.40
2020,03,11,13,22,10.40
2020,03,11,13,23,10.40
2020,03,11,13,24,10.40
2020,03,11,13,26,10.30
2020,03,11,13,27,10.30
2020,03,11,13,28,10.20
2020,03,11,13,29,10.10
2020,03,11,13,31,10.10
2020,03,11,13,32,10.10
2020,03,11,13,33,10.10
2020,03,11,13,34,9.90
2020,03,11,13,36,9.90
2020,03,11,13,37,9.90
2020,03,11,13,38,9.90
2020,03,11,13,39,9.90
2020,03,11,13,40,9.90
2020,03,11,13,41,9.90
2020,03,11,13,42,9.90
2020,03,11,13,43,9.90
2020,03,11,13,44,10.10
2020,03,11,13,45,10.10
2020,03,11,13,46,10.10
2020,03,11,13,47,9.90
2020,03,11,13,48,9.90
2020,03,11,13,49,10.10
2020,03,11,13,50,10.10
2020,03,11,13,51,9.90
2020,03,11,13,52,9.90
2020,03,11,13,53,9.90
2020,03,11,13,54,9.80
2020,03,11,13,55,9.80
2020,03,11,13,56,9.70
2020,03,11,13,57,9.70
2020,03,11,13,58,9.70
2020,03,11,13,59,9.60
2020,03,11,14,00,9.60
2020,03,11,14,01,9.50
2020,03,11,14,02,9.50
2020,03,11,14,03,9.50
2020,03,11,14,04,9.50
2020,03,11,14,05,9.50
2020,03,11,14,06,9.60
2020,03,11,14,07,9.60
2020,03,11,14,08,9.70
2020,03,11,14,09,9.70
2020,03,11,14,10,9.70
2020,03,11,14,11,9.70
2020,03,11,14,12,9.70
2020,03,11,14,13,9.70
2020,03,11,14,14,9.70
2020,03,11,14,15,9.70
2020,03,11,14,16,9.80
2020,03,11,14,17,9.80
2020,03,11,14,18,9.80
2020,03,11,14,19,9.80
2020,03,11,14,20,9.80
2020,03,11,14,21,9.80
2020,03,11,14,22,9.90
2020,03,11,14,23,9.90
2020,03,11,14,24,9.90
2020,03,11,14,25,9.90
2020,03,11,14,26,9.90
2020,03,11,14,27,9.90
2020,03,11,14,28,9.90
2020,03,11,14,29,9.90
2020,03,11,14,30,10.10
2020,03,11,14,31,10.10
2020,03,11,14,32,10.10
2020,03,11,14,33,10.10
2020,03,11,14,34,10.10
2020,03,11,14,35,10.20
2020,03,11,14,36,10.30
2020,03,11,14,37,10.30
2020,03,11,14,38,10.40
2020,03,11,14,39,10.40
2020,03,11,14,40,10.40
2020,03,11,14,41,10.40
2020,03,11,14,42,10.60
2020,03,11,14,43,10.60
2020,03,11,14,44,10.60
2020,03,11,14,45,10.60
2020,03,11,14,46,10.60
2020,03,11,14,47,10.60
2020,03,11,14,48,10.60
2020,03,11,14,49,10.60
2020,03,11,14,50,10.60
2020,03,11,14,51,10.60
2020,03,11,14,52,10.60
2020,03,11,14,53,10.60
2020,03,11,14,54,10.60
2020,03,11,14,55,10.60
2020,03,11,14,56,10.60
2020,03,11,14,57,10.70
2020,03,11,14,58,10.70
2020,03,11,14,59,10.70
2020,03,11,15,00,10.80
2020,03,11,15,01,10.70
2020,03,11,15,02,10.70
2020,03,11,15,03,10.70
2020,03,11,15,04,10.70
2020,03,11,15,05,10.70
2020,03,11,15,06,10.70
2020,03,11,15,07,10.70
2020,03,11,15,08,10.70
2020,03,11,15,09,10.70
2020,03,11,15,10,10.70
2020,03,11,15,12,10.70
2020,03,11,15,14,10.60
2020,03,11,15,16,10.60
2020,03,11,15,17,10.60
2020,03,11,15,18,10.60
2020,03,11,15,19,10.60
2020,03,11,15,21,10.60
2020,03,11,15,22,10.60
2020,03,11,15,23,10.60
2020,03,11,15,24,10.60
2020,03,11,15,26,10.60
2020,03,11,15,27,10.40
2020,03,11,15,28,10.40
2020,03,11,15,29,10.40
2020,03,11,15,31,10.40
2020,03,11,15,32,10.40
2020,03,11,15,33,10.30
2020,03,11,15,34,10.30
2020,03,11,15,36,10.30
2020,03,11,15,37,10.30
2020,03,11,15,38,10.30
2020,03,11,15,39,10.30
2020,03,11,15,41,10.30
2020,03,11,15,42,10.30
2020,03,11,15,43,10.30
2020,03,11,15,44,10.30
2020,03,11,15,46,10.30
2020,03,11,15,47,10.30
2020,03,11,15,48,10.20
2020,03,11,15,49,10.20
2020,03,11,15,51,10.30
2020,03,11,15,52,10.30
2020,03,11,15,53,10.30
2020,03,11,15,54,10.40
2020,03,11,15,56,10.40
2020,03,11,15,57,10.40
2020,03,11,15,58,10.40
2020,03,11,15,59,10.40
2020,03,11,16,01,10.40
2020,03,11,16,02,10.40
2020,03,11,16,03,10.40
2020,03,11,16,04,10.40
2020,03,11,16,06,10.60
2020,03,11,16,07,10.60
2020,03,11,16,08,10.60
2020,03,11,16,09,10.60
2020,03,11,16,11,10.40
2020,03,11,16,12,10.40
2020,03,11,16,13,10.40
2020,03,11,16,14,10.40
2020,03,11,16,16,10.40
2020,03,11,16,17,10.40
2020,03,11,16,18,10.30
2020,03,11,16,19,10.30
2020,03,11,16,21,10.30
2020,03,11,16,22,10.20
2020,03,11,16,23,10.20
2020,03,11,16,24,10.20
2020,03,11,16,26,10.10
2020,03,11,16,27,10.10
2020,03,11,16,28,10.10
2020,03,11,16,29,10.10
2020,03,11,16,31,9.90
2020,03,11,16,32,9.90
2020,03,11,16,33,9.90
2020,03,11,16,34,9.90
2020,03,11,16,36,9.90
2020,03,11,16,37,9.90
2020,03,11,16,38,9.90
2020,03,11,16,39,9.90
2020,03,11,16,40,9.90
2020,03,11,16,41,9.90
2020,03,11,16,42,9.90
2020,03,11,16,43,9.90
2020,03,11,16,44,9.90
2020,03,11,16,45,9.90
2020,03,11,16,46,9.90
2020,03,11,16,47,9.90
2020,03,11,16,48,9.90
2020,03,11,16,49,9.90
2020,03,11,16,50,9.90
2020,03,11,16,51,9.90
2020,03,11,16,52,9.90
2020,03,11,16,53,9.90
2020,03,11,16,54,9.90
2020,03,11,16,55,9.80
2020,03,11,16,56,9.80
2020,03,11,16,57,9.80
2020,03,11,16,58,9.80
2020,03,11,16,59,9.80
2020,03,11,17,00,9.80
2020,03,11,17,01,9.90
2020,03,11,17,02,9.80
2020,03,11,17,03,9.80
2020,03,11,17,04,9.80
2020,03,11,17,05,9.70
2020,03,11,17,06,9.70
2020,03,11,17,07,9.80
2020,03,11,17,08,9.80
2020,03,11,17,09,9.70
2020,03,11,17,10,9.70
2020,03,11,17,11,9.70
2020,03,11,17,12,9.70
2020,03,11,17,13,9.70
2020,03,11,17,14,9.70
2020,03,11,17,15,9.70
2020,03,11,17,16,9.70
2020,03,11,17,17,9.70
2020,03,11,17,18,9.70
2020,03,11,17,19,9.60
2020,03,11,17,20,9.60
2020,03,11,17,21,9.60
2020,03,11,17,22,9.60
2020,03,11,17,23,9.50
2020,03,11,17,24,9.60
2020,03,11,17,25,9.60
2020,03,11,17,26,9.60
2020,03,11,17,27,9.60
2020,03,11,17,28,9.60
2020,03,11,17,29,9.60
2020,03,11,17,30,9.60
2020,03,11,17,31,9.60
2020,03,11,17,32,9.60
2020,03,11,17,33,9.60
2020,03,11,17,34,9.60
2020,03,11,17,35,9.60
2020,03,11,17,36,9.60
2020,03,11,17,37,9.60
2020,03,11,17,38,9.60
2020,03,11,17,39,9.60
2020,03,11,17,40,9.60
2020,03,11,17,41,9.60
2020,03,11,17,42,9.60
2020,03,11,17,43,9.60
2020,03,11,17,44,9.60
2020,03,11,17,45,9.60
2020,03,11,17,46,9.60
2020,03,11,17,47,9.60
2020,03,11,17,48,9.60
2020,03,11,17,49,9.60
2020,03,11,17,50,9.60
2020,03,11,17,51,9.60
2020,03,11,17,52,9.60
2020,03,11,17,53,9.50
2020,03,11,17,54,9.50
2020,03,11,17,55,9.50
2020,03,11,17,56,9.50
2020,03,11,17,57,9.50
2020,03,11,17,58,9.50
2020,03,11,17,59,9.40
2020,03,11,18,00,9.40
2020,03,11,18,01,9.40
2020,03,11,18,02,9.40
2020,03,11,18,03,9.30
2020,03,11,18,04,9.30
2020,03,11,18,05,9.30
2020,03,11,18,06,9.20
2020,03,11,18,07,9.20
2020,03,11,18,08,9.20
2020,03,11,18,09,9.20
2020,03,11,18,10,9.20
2020,03,11,18,11,9.20
2020,03,11,18,12,9.20
2020,03,11,18,13,9.20
2020,03,11,18,14,9.10
2020,03,11,18,15,9.10
2020,03,11,18,16,9.10
2020,03,11,18,17,9.10
2020,03,11,18,18,9.10
2020,03,11,18,19,9.10
2020,03,11,18,20,9.00
2020,03,11,18,21,9.00
2020,03,11,18,22,9.00
2020,03,11,18,23,8.90
2020,03,11,18,24,8.90
2020,03,11,18,25,8.90
2020,03,11,18,26,8.80
2020,03,11,18,27,8.80
2020,03,11,18,28,8.70
2020,03,11,18,29,8.70
2020,03,11,18,30,8.70
2020,03,11,18,32,8.60
2020,03,11,18,33,8.60
2020,03,11,18,34,8.60
2020,03,11,18,35,8.60
2020,03,11,18,36,8.60
2020,03,11,18,37,8.60
2020,03,11,18,38,8.60
2020,03,11,18,39,8.60
2020,03,11,18,40,8.60
2020,03,11,18,41,8.60
2020,03,11,18,42,8.60
2020,03,11,18,43,8.60
2020,03,11,18,44,8.60
2020,03,11,18,45,8.60
2020,03,11,18,46,8.60
2020,03,11,18,47,8.60
2020,03,11,18,49,8.60
2020,03,11,18,51,8.60
2020,03,11,18,52,8.60
2020,03,11,18,53,8.60
2020,03,11,18,54,8.60
2020,03,11,18,56,8.60
2020,03,11,18,57,8.60
2020,03,11,18,58,8.60
2020,03,11,18,59,8.60
2020,03,11,19,01,8.60
2020,03,11,19,02,8.60
2020,03,11,19,03,8.60
2020,03,11,19,04,8.60
2020,03,11,19,06,8.60
2020,03,11,19,07,8.60
2020,03,11,19,08,8.50
2020,03,11,19,09,8.50
2020,03,11,19,11,8.50
2020,03,11,19,12,8.40
2020,03,11,19,13,8.40
2020,03,11,19,14,8.40
2020,03,11,19,16,8.30
2020,03,11,19,17,8.30
2020,03,11,19,18,8.30
2020,03,11,19,19,8.30
2020,03,11,19,21,8.20
2020,03,11,19,22,8.20
2020,03,11,19,23,8.20
2020,03,11,19,24,8.20
2020,03,11,19,26,8.20
2020,03,11,19,27,8.20
2020,03,11,19,28,8.20
2020,03,11,19,29,8.20
2020,03,11,19,31,8.10
2020,03,11,19,32,8.10
2020,03,11,19,33,8.10
2020,03,11,19,34,8.10
2020,03,11,19,36,8.00
2020,03,11,19,37,8.00
2020,03,11,19,38,8.00
2020,03,11,19,39,7.90
2020,03,11,19,41,7.90